Flag for U.S.A. Weather past 2 weeks in New Haven, Connecticut, U.S.A.

Now
74 °F

Sunny.


Feels Like: 76 °F
Forecast: 64 / 83 °F
Wind: 5 mph from Northwest

Location: Tweed-New Haven Airport

Current Time: Aug 5, 2015 at 9:32:26 AM

Latest Report: Aug 5, 2015 at 8:53 AM


Visibility: 10 mi

Pressure: 29.90 "Hg

Humidity: 69%

Dew point: 63 °F

Location of New HavenLocation

Historic Weather in New Haven — Graph

°F

New Haven temperature yesterday

Maximum temperature yesterday: 86 °F (at 4:53 PM)
Minimum temperature yesterday: 70 °F (at 11:53 PM)
Average temperature yesterday: 79 °F

Past Weeks' High & Low Weather Summary

 TemperatureHumidityPressure
High89 °F (Jul 29, 2:53 PM)97% (Jul 28, 2:53 AM)30.06 "Hg (Jul 28, 2:53 AM)
Low59 °F (Jul 24, 5:53 AM)32% (Jul 31, 5:53 PM)29.56 "Hg (Jul 21, 6:53 PM)
Average76 °F69%29.88 "Hg
* Reported Jul 21 7:53 AM — Aug 5 7:53 AM, New Haven, Weather by CustomWeather, © 2015

Note: Actual official high and low records may vary slightly from our data, if they occured in-between our weather recording intervals... More about our weather records

Advertising

New Haven weather history for previous 24 hours

 ConditionsComfort  
Time TempWeatherWind HumidityBarometerVisibility
7:53 AM
Wed, Aug 5
71 °FBroken clouds.No wind78%29.89 "Hg10 mi
6:53 AM66 °FScattered clouds.No wind90%29.90 "Hg10 mi
5:53 AM64 °FPassing clouds.No wind90%29.89 "Hg10 mi
4:53 AM63 °FClear.No wind90%29.89 "Hg10 mi
3:53 AM64 °FClear.No wind87%29.89 "Hg10 mi
2:53 AM65 °FClear.No wind87%29.90 "Hg10 mi
1:53 AM66 °FClear.No wind84%29.90 "Hg10 mi
12:53 AM67 °FClear.No wind79%29.91 "Hg10 mi
11:53 PM
Tue, Aug 4
70 °FClear.No wind73%29.90 "Hg10 mi
10:53 PM74 °FClear.5 mph64%29.90 "Hg10 mi
9:53 PM78 °FClear.5 mph56%29.89 "Hg10 mi
8:53 PM82 °FSunny.3 mph49%29.87 "Hg10 mi
7:53 PM84 °FPassing clouds.5 mph45%29.84 "Hg10 mi
6:53 PM84 °FPassing clouds.6 mph48%29.83 "Hg10 mi
5:53 PM84 °FPassing clouds.12 mph43%29.82 "Hg10 mi
4:53 PM86 °FPassing clouds.13 mph40%29.81 "Hg10 mi
3:53 PM85 °FPassing clouds.7 mph53%29.81 "Hg10 mi
2:53 PM85 °FScattered clouds.9 mph55%29.83 "Hg10 mi
1:53 PM85 °FSunny.10 mph55%29.83 "Hg10 mi
12:53 PM83 °FScattered clouds.12 mph61%29.84 "Hg10 mi
11:53 AM81 °FPassing clouds.10 mph60%29.85 "Hg10 mi
10:53 AM78 °FPassing clouds.8 mph69%29.85 "Hg10 mi
9:53 AM75 °FScattered clouds.6 mph74%29.85 "Hg10 mi
Weather by CustomWeather, © 2015

See weather overviewHow to use our weather pages